Vertical_Velocity
2 -2 -2 -4 -2 -1 -2 -0 -1 -1 -0 0 1 4 -0 -1 -1 -1 -1 -1 -1 -2 -1 -1 -0 -0 -1 -1 -2 -2 -2 -2 -1 0 1 -0 -1 -0 0 1 -2 -2 -1
-1 0 -1 -2 -2 -0 -2 -2 0 1 4 2 -2 -1 -1 -1 -1 -0 -1 -1 -1 -1 -2 -1 -1 1 -0 -1 -1 -1 -1 -0 0 0 -0 -2 -2 -0 0 -0 -0 -0 -1
3 -1 -2 0 1 -2 -1 -1 -2 -1 -0 -0 -0 -1 -2 -1 -2 -2 -2 -1 -1 -0 -0 -1 -2 -2 0 -1 -0 1 -0 -1 0 1 -1 -3 1 1 0 -1 -1 -1 -2
0 1 -2 -0 -0 0 -1 -1 -2 -0 -1 -0 0 -0 -1 -0 -2 -2 -1 -2 -1 -1 -1 -1 0 -2 -1 -0 -0 1 0 -0 0 2 2 6 5 -1 -1 0 1 0 -0
-3 -0 1 -1 -1 -0 -1 -0 -1 -0 -1 -1 -0 -0 -1 -1 -1 -1 -1 -1 -1 -1 -1 -1 -1 -1 -1 -1 -1 0 0 -0 -1 -1 0 0 2 0 -2 -2 -1 -0 -0
-1 -3 -0 1 0 -1 -0 -1 -1 -1 -1 -1 -2 -1 -0 -0 -2 -1 -1 -0 -1 -1 -1 -1 -0 -0 -1 -0 1 -1 -1 -2 -2 -3 3 -0 -4 -1 -1 -2 -2 -1 -0
-4 2 1 -0 -1 -1 -1 0 -1 -0 -1 -1 -0 -0 -1 -1 -0 -1 -1 -2 -2 -1 -1 -1 -1 0 -1 -1 0 0 -0 0 -1 2 -2 3 1 -1 -1 3 2 3 1
-6 2 0 2 -1 -1 1 -1 -1 -0 -0 -0 -1 -1 0 -1 -0 -2 -1 -0 -1 -1 -1 -1 -1 -1 -1 0 -1 -0 -1 4 2 -0 -0 -2 5 4 0 -1 0 -0 -1
-0 -3 0 0 -0 -0 -0 -1 -1 -1 -1 -0 -0 -1 -0 1 -1 -1 -1 -0 -0 -1 -1 -1 -0 -1 -1 -0 0 -1 -1 3 -2 -4 -2 -2 -2 0 1 1 2 -0 -2
3 1 1 1 -2 -1 -2 -1 -1 1 -2 -0 1 -1 -4 1 0 -1 -1 -0 -0 -2 -1 -0 -0 -1 -2 0 -0 -1 -2 1 -1 -3 -4 -3 -3 -0 2 2 2 1 -2
2 2 1 -1 0 -2 -1 -1 -1 1 -2 -1 1 -0 -2 -2 3 -2 -1 0 -1 -1 -1 -1 1 -0 -2 -2 -1 -3 -1 -3 -4 0 -1 0 -1 -2 1 0 -0 -2 -0
4 4 -0 -1 -1 -1 2 -1 -0 0 1 -3 0 -1 1 -7 6 -1 -3 1 -1 -1 -2 -0 -1 -0 -2 -2 -1 -1 2 -4 -3 -3 -1 -2 -1 -0 -3 -1 -1 1 -2
1 4 5 3 -1 -1 1 0 -0 1 3 -1 -3 -4 3 -3 3 -1 -1 1 -2 0 -3 0 -0 -0 0 1 -1 -2 -0 -2 -2 -3 -2 -0 -3 -3 -3 -1 -1 -3 -1
2 -2 9 1 -1 1 -1 -2 1 -2 3 -0 -1 1 -3 1 2 -3 -0 -1 -2 -3 -1 -1 0 0 -1 2 0 -0 -0 -1 -3 -1 -2 -2 -1 -0 -2 -4 -3 -0 1
-1 9 -0 -1 2 1 4 -1 -1 2 1 1 -0 0 1 -5 6 -1 -1 -2 -2 -1 -2 -1 -0 -0 0 1 1 -1 0 -0 -2 -0 -1 -1 -2 -1 -1 -2 -1 -0 -0
6 -1 -7 -5 -7 -3 -1 1 1 -0 3 3 1 2 0 -1 -2 4 -1 -2 -1 -1 -1 -1 -0 -0 -0 -1 -0 -0 -1 0 -1 -2 -1 0 0 1 -0 -1 -1 0 -0
7 -1 0 -1 -0 -0 -1 -4 -3 -1 -1 0 -1 3 0 -3 1 3 1 -0 0 -1 -2 -2 -1 -1 -0 -1 -0 -1 0 -0 0 1 -3 -1 -0 -1 -1 -1 -1 -1 -0
3 -0 12 4 3 -4 -5 2 -1 -1 -0 -0 -1 0 -1 -6 0 2 1 0 0 -1 -1 -2 -2 -2 -1 -1 -1 0 -0 -1 -1 -1 0 -1 -3 -0 -1 -0 -2 -1 -0
3 -2 9 -2 1 2 3 0 1 -3 -1 -0 2 -2 -1 -3 -0 0 2 -1 -2 -0 -1 -0 -2 -0 -3 -0 1 -1 -0 -0 -1 -1 -2 -0 -1 -2 -2 -2 -1 -1 0
3 10 -5 6 0 -8 8 -1 -1 1 -5 -2 5 -1 -0 -2 -0 -2 1 -1 -2 -2 -0 -0 -2 -0 1 -1 -0 1 -2 -1 -1 -1 -0 -2 -2 -1 -3 -3 -1 1 -1
7 -3 15 19 3 -9 -1 -3 -2 0 -3 3 0 -2 -1 -1 -0 1 -0 1 -0 0 -3 -0 -1 -1 -2 -0 -3 -2 0 -1 1 0 -1 1 -1 -0 -1 0 -0 -3 -3
1 3 3 3 -0 10 -2 2 1 0 -0 2 3 2 -0 -2 1 0 1 2 -1 -0 -4 -2 -1 -2 -3 -1 -2 -2 1 0 -2 -0 3 0 0 -1 -1 -2 -0 -1 -1
2 1 -5 18 -0 8 -0 -3 1 -2 0 -1 -0 0 -3 1 1 -0 1 2 0 1 1 -3 -1 1 -2 -1 -0 -4 -1 1 1 1 -1 1 -1 -2 -1 -2 -3 0 3
-2 13 6 -16 6 7 4 4 -1 4 -1 0 -0 -0 1 0 1 2 2 -0 0 -1 -3 -1 1 -0 3 0 -1 2 -1 0 -0 -1 1 0 1 -1 -1 1 -0 0 -2
-2 -0 -0 1 7 -32 17 1 1 6 2 0 1 1 -1 1 1 4 3 2 1 1 2 -1 2 -2 1 0 1 -1 0 -1 -2 0 -4 2 -2 5 1 0 -2 -2 -0
-0 4 0 -7 -5 9 9 -18 1 -3 11 0 -1 3 4 2 2 1 -0 -0 1 0 1 1 -0 3 -1 -0 1 -0 0 0 0 1 -0 2 -3 -0 -1 -1 1 -1 -0
Height
1509 1513 1517 1520 1523 1526 1529 1531 1532 1534 1535 1536 1537 1539 1540 1540 1541 1542 1542 1543 1543 1543 1543 1543 1543 1543 1544 1544 1544 1544 1544 1544 1544 1545 1545 1545 1546 1546 1547 1547 1546 1546 1546
1506 1512 1516 1520 1523 1526 1529 1532 1533 1535 1536 1537 1538 1539 1540 1541 1542 1542 1543 1543 1543 1543 1543 1543 1543 1543 1543 1543 1543 1544 1544 1544 1545 1545 1546 1546 1546 1547 1547 1547 1547 1547 1547
1506 1510 1515 1520 1523 1526 1529 1531 1533 1535 1536 1538 1539 1540 1540 1541 1541 1542 1542 1542 1542 1542 1543 1543 1543 1542 1542 1542 1543 1543 1543 1544 1545 1546 1546 1547 1548 1548 1547 1548 1548 1548 1547
1506 1510 1514 1520 1523 1526 1529 1531 1534 1535 1537 1539 1539 1540 1540 1541 1541 1542 1542 1542 1542 1542 1542 1542 1542 1542 1542 1542 1543 1543 1543 1544 1545 1546 1547 1548 1548 1548 1548 1548 1548 1548 1548
1507 1511 1515 1520 1524 1527 1529 1531 1534 1536 1537 1538 1539 1540 1540 1541 1541 1542 1542 1542 1542 1543 1542 1542 1542 1542 1542 1542 1543 1543 1544 1544 1545 1546 1547 1548 1547 1547 1547 1547 1547 1548 1547
1508 1511 1516 1520 1524 1526 1529 1532 1534 1535 1536 1538 1539 1539 1540 1541 1541 1542 1542 1543 1543 1543 1543 1543 1542 1542 1542 1542 1543 1544 1545 1545 1546 1546 1547 1547 1547 1547 1547 1547 1547 1547 1547
1506 1512 1517 1521 1524 1527 1530 1532 1534 1535 1536 1537 1538 1539 1540 1541 1541 1542 1543 1543 1543 1543 1543 1543 1543 1542 1542 1542 1543 1544 1546 1547 1546 1548 1548 1548 1547 1547 1547 1547 1547 1546 1546
1508 1513 1517 1521 1524 1527 1530 1532 1533 1535 1536 1537 1538 1540 1540 1541 1542 1542 1543 1543 1543 1543 1543 1543 1543 1542 1543 1543 1543 1545 1547 1548 1549 1549 1548 1548 1549 1548 1548 1547 1547 1547 1546
1510 1514 1517 1520 1524 1527 1530 1531 1533 1534 1536 1537 1538 1540 1541 1541 1542 1542 1543 1543 1543 1543 1544 1544 1543 1543 1543 1544 1545 1547 1548 1548 1547 1548 1548 1548 1549 1549 1549 1548 1547 1547 1546
1510 1514 1516 1519 1523 1526 1529 1531 1533 1534 1536 1537 1538 1540 1541 1542 1543 1543 1544 1544 1544 1544 1544 1545 1545 1545 1545 1546 1547 1548 1549 1548 1546 1547 1548 1548 1549 1550 1549 1549 1548 1546 1546
1509 1513 1515 1519 1522 1525 1527 1530 1532 1534 1536 1538 1539 1540 1541 1542 1543 1543 1544 1545 1545 1546 1546 1546 1546 1546 1547 1548 1549 1549 1549 1548 1547 1547 1548 1550 1550 1549 1549 1548 1548 1547 1545
1507 1511 1515 1518 1520 1523 1527 1529 1531 1534 1535 1537 1539 1539 1540 1543 1543 1544 1545 1545 1546 1546 1547 1546 1546 1546 1547 1548 1550 1550 1549 1548 1548 1548 1548 1549 1550 1550 1549 1548 1548 1547 1546
1505 1509 1514 1517 1519 1522 1526 1528 1531 1533 1535 1536 1539 1539 1542 1543 1543 1544 1545 1545 1546 1547 1547 1547 1547 1547 1548 1550 1550 1550 1550 1548 1548 1548 1549 1549 1549 1548 1548 1548 1547 1546 1545
1502 1509 1513 1517 1520 1523 1526 1528 1530 1532 1534 1536 1538 1540 1542 1542 1542 1543 1545 1545 1546 1547 1548 1548 1548 1549 1549 1550 1550 1550 1550 1550 1548 1549 1549 1549 1549 1548 1548 1547 1546 1546 1545
1504 1506 1512 1518 1522 1524 1527 1529 1530 1532 1533 1535 1538 1539 1541 1542 1543 1543 1544 1545 1546 1547 1548 1549 1550 1550 1551 1551 1551 1551 1550 1550 1549 1549 1549 1549 1549 1549 1548 1547 1546 1546 1545
1502 1504 1511 1516 1521 1525 1528 1530 1531 1533 1533 1536 1537 1539 1540 1542 1544 1542 1543 1545 1546 1547 1549 1550 1550 1550 1551 1551 1551 1551 1551 1550 1550 1549 1550 1550 1549 1549 1548 1547 1547 1546 1545
1499 1503 1507 1514 1519 1523 1527 1529 1531 1533 1534 1535 1537 1538 1540 1541 1543 1542 1543 1544 1546 1547 1548 1549 1550 1550 1551 1551 1551 1551 1552 1551 1551 1550 1549 1549 1549 1549 1548 1547 1547 1546 1545
1498 1501 1501 1505 1515 1522 1525 1528 1529 1533 1534 1536 1537 1538 1539 1541 1542 1543 1543 1544 1545 1547 1548 1548 1549 1550 1550 1550 1551 1551 1551 1551 1551 1550 1549 1548 1548 1548 1548 1547 1546 1546 1545
1497 1497 1492 1497 1515 1519 1523 1526 1527 1530 1534 1536 1537 1538 1539 1540 1541 1543 1542 1543 1545 1546 1547 1547 1548 1549 1549 1550 1550 1550 1550 1550 1549 1549 1548 1548 1548 1547 1546 1546 1546 1545 1544
1494 1496 1498 1503 1509 1517 1522 1522 1525 1528 1532 1536 1536 1537 1539 1540 1541 1542 1543 1543 1544 1545 1546 1546 1547 1548 1548 1548 1549 1548 1548 1548 1548 1548 1547 1546 1545 1546 1545 1544 1544 1543 1543
1491 1496 1498 1502 1506 1509 1516 1518 1522 1527 1530 1534 1535 1536 1538 1539 1540 1541 1542 1542 1543 1543 1544 1545 1546 1546 1546 1546 1546 1546 1545 1546 1546 1545 1545 1545 1543 1542 1543 1543 1542 1541 1540
1490 1492 1493 1506 1510 1511 1511 1516 1521 1527 1530 1533 1533 1534 1536 1538 1539 1540 1540 1541 1541 1542 1543 1544 1544 1544 1543 1544 1543 1544 1544 1544 1544 1544 1544 1543 1543 1542 1541 1540 1540 1539 1538
1485 1489 1494 1497 1506 1509 1508 1514 1520 1524 1527 1529 1531 1533 1535 1536 1537 1538 1539 1539 1540 1541 1541 1542 1543 1542 1541 1541 1541 1542 1543 1543 1542 1542 1542 1543 1541 1541 1540 1538 1537 1537 1536
1483 1488 1495 1500 1505 1507 1507 1510 1517 1520 1524 1527 1529 1532 1533 1534 1536 1536 1536 1537 1538 1539 1539 1540 1541 1541 1540 1539 1539 1539 1540 1541 1541 1541 1540 1540 1539 1539 1538 1537 1536 1535 1533
1480 1483 1489 1492 1497 1493 1506 1510 1517 1519 1521 1524 1526 1529 1531 1533 1534 1535 1535 1535 1536 1537 1537 1537 1539 1539 1539 1538 1538 1537 1537 1538 1539 1540 1538 1537 1537 1536 1535 1534 1533 1532 1530
1479 1483 1488 1492 1497 1501 1497 1505 1513 1517 1519 1519 1524 1527 1529 1531 1533 1533 1534 1533 1534 1535 1535 1536 1537 1536 1536 1535 1536 1535 1535 1535 1536 1536 1537 1534 1532 1533 1532 1531 1530 1528 1527